GW5231 Weather Reports


Display with metric or nautical units.
time (UTC)temp
F
wind
direction
speed
MPH
gust
MPH
rain 1hr
in
rain 24hr
in
rain mn
in
humidity
%
barometer
mb
20260906171913 78 94 9.0 11.0 0.00 0.00 0.00 58 1024.5
20260906171413 78 87 10.0 13.0 0.00 0.00 0.00 58 1024.8
20260906170909 78 192 6.0 8.0 0.00 0.00 0.00 58 1024.9
20260906170405 78 159 6.0 8.0 0.00 0.00 0.00 59 1025.0
20260906165902 77 162 10.0 11.0 0.00 0.00 0.00 57 1024.9
20260906165401 78 151 8.0 9.0 0.00 0.00 0.00 54 1025.1
20260906164856 78 228 1.0 2.0 0.00 0.00 0.00 60 1025.0
20260906164354 78 31 4.0 6.0 0.00 0.00 0.00 58 1025.0
20260906163851 77 123 5.0 6.0 0.00 0.00 0.00 61 1025.0
20260906163347 77 111 8.0 9.0 0.00 0.00 0.00 62 1024.9
20260906162844 77 109 4.0 6.0 0.00 0.00 0.00 61 1024.9
20260906162343 77 88 6.0 9.0 0.00 0.00 0.00 57 1024.9
20260906161838 76 119 5.0 6.0 0.00 0.00 0.00 60 1025.1
20260906161337 77 111 7.0 9.0 0.00 0.00 0.00 60 1025.1
20260906160836 76 113 4.0 6.0 0.00 0.00 0.00 60 1025.1
20260906160330 76 80 6.0 8.0 0.00 0.00 0.00 63 1025.0
20260906155829 76 89 2.0 2.0 0.00 0.00 0.00 67 1025.3
20260906155323 75 146 7.0 9.0 0.00 0.00 0.00 59 1025.1
20260906154819 75 144 4.0 5.0 0.00 0.00 0.00 66 1025.1
20260906154314 75 27 1.0 2.0 0.00 0.00 0.00 66 1025.3
20260906153812 75 32 1.0 2.0 0.00 0.00 0.00 67 1025.4
20260906153306 75 107 2.0 2.0 0.00 0.00 0.00 67 1025.2
20260906152801 74 179 3.0 4.0 0.00 0.00 0.00 66 1025.2
20260906152256 73 134 4.0 6.0 0.00 0.00 0.00 67 1025.3
20260906151755 72 113 6.0 6.0 0.00 0.00 0.00 69 1025.1
20260906151252 72 87 5.0 6.0 0.00 0.00 0.00 69 1025.2
20260906150747 71 88 2.0 4.0 0.00 0.00 0.00 73 1025.0
20260906150242 72 94 3.0 4.0 0.00 0.00 0.00 73 1025.0
20260906145742 72 71 4.0 5.0 0.00 0.00 0.00 70 1025.1
20260906145240 71 114 2.0 4.0 0.00 0.00 0.00 75 1025.0
20260906144736 71 89 4.0 5.0 0.00 0.00 0.00 73 1025.0
20260906144236 71 104 6.0 8.0 0.00 0.00 0.00 72 1024.6
20260906143735 70 128 5.0 6.0 0.00 0.00 0.00 76 1025.0
20260906143232 69 145 6.0 8.0 0.00 0.00 0.00 76 1024.5
20260906142732 70 94 6.0 8.0 0.00 0.00 0.00 77 1024.8
20260906142227 71 107 6.0 6.0 0.00 0.00 0.00 76 1024.8
20260906141726 71 151 6.0 6.0 0.00 0.00 0.00 76 1024.4
20260906141221 69 141 5.0 6.0 0.00 0.00 0.00 80 1024.6
20260906140720 69 92 4.0 5.0 0.00 0.00 0.00 80 1024.6
20260906140215 69 154 5.0 5.0 0.00 0.00 0.00 79 1024.5
20260906135712 69 155 7.0 9.0 0.00 0.00 0.00 79 1024.5
20260906135208 69 96 4.0 5.0 0.00 0.00 0.00 80 1024.5
20260906134703 69 131 6.0 6.0 0.00 0.00 0.00 82 1024.4
20260906134159 69 105 5.0 6.0 0.00 0.00 0.00 81 1024.5
20260906133654 69 122 3.0 4.0 0.00 0.00 0.00 83 1024.4
20260906133149 68 113 6.0 8.0 0.00 0.00 0.00 84 1024.3
20260906132644 68 97 4.0 6.0 0.00 0.00 0.00 86 1024.3
20260906132140 67 79 6.0 8.0 0.00 0.00 0.00 86 1024.5
20260906131636 67 101 7.0 9.0 0.00 0.00 0.00 87 1024.3
20260906131130 67 95 5.0 6.0 0.00 0.00 0.00 87 1024.4
20260906130626 67 84 4.0 6.0 0.00 0.00 0.00 89 1024.5
20260906130121 67 66 7.0 9.0 0.00 0.00 0.00 87 1024.4
20260906125619 66 77 5.0 5.0 0.00 0.00 0.00 89 1024.4
20260906125117 67 75 4.0 5.0 0.00 0.00 0.00 90 1024.5
20260906124613 66 77 4.0 5.0 0.00 0.00 0.00 91 1024.5
20260906124108 66 108 5.0 5.0 0.00 0.00 0.00 91 1024.3
20260906123608 65 101 6.0 6.0 0.00 0.00 0.00 93 1024.4
20260906123103 64 32 2.0 2.0 0.00 0.00 0.00 96 1024.4
20260906122601 64 92 2.0 2.0 0.00 0.00 0.00 96 1024.6
20260906122058 63 81 3.0 4.0 0.00 0.00 0.00 98 1024.4
20260906121554 63 42 1.0 2.0 0.00 0.00 0.00 98 1024.3
20260906121051 63 90 2.0 2.0 0.00 0.00 0.00 98 1024.3
20260906120551 63 24 2.0 2.0 0.00 0.00 0.00 98 1024.4
20260906120049 63 18 0.0 0.0 0.00 0.00 0.00 99 1024.2
20260906115548 62 17 0.0 0.0 0.00 0.00 0.00 99 1024.1
20260906115043 62 23 2.0 2.0 0.00 0.00 0.00 99 1024.0
20260906114537 62 5 0.0 0.0 0.00 0.00 0.00 99 1024.2
20260906114033 62 4 2.0 2.0 0.00 0.00 0.00 99 1024.1
20260906113532 61 357 0.0 0.0 0.00 0.00 0.00 99 1024.2
20260906113027 61 358 0.0 0.0 0.00 0.00 0.00 99 1024.1
20260906112522 61 0 0.0 0.0 0.00 0.00 0.00 99 1024.2
20260906112019 62 2 0.0 0.0 0.00 0.00 0.00 99 1024.0
20260906111518 62 6 0.0 0.0 0.00 0.00 0.00 99 1023.9
20260906111014 62 6 0.0 0.0 0.00 0.00 0.00 99 1023.9
20260906110508 62 9 0.0 0.0 0.00 0.00 0.00 99 1023.9
20260906110007 62 10 0.0 0.0 0.00 0.00 0.00 99 1023.7
20260906105503 62 10 0.0 0.0 0.00 0.00 0.00 99 1023.9
20260906104959 62 13 0.0 0.0 0.00 0.00 0.00 99 1023.7
20260906104457 62 14 0.0 0.0 0.00 0.00 0.00 99 1023.7
20260906103956 62 15 0.0 0.0 0.00 0.00 0.00 99 1023.6
20260906103454 62 17 0.0 0.0 0.00 0.00 0.00 99 1023.4
20260906102950 62 22 2.0 2.0 0.00 0.00 0.00 99 1023.5
20260906102444 62 5 0.0 0.0 0.00 0.00 0.00 99 1023.4
20260906101939 63 12 0.0 0.0 0.00 0.00 0.00 99 1023.4
20260906101435 63 55 3.0 4.0 0.00 0.00 0.00 99 1023.0
20260906100930 63 77 2.0 2.0 0.00 0.00 0.00 98 1023.0
20260906100429 63 21 2.0 2.0 0.00 0.00 0.00 99 1023.0
20260906095924 63 71 3.0 4.0 0.00 0.00 0.00 99 1022.9
20260906095420 63 71 3.0 4.0 0.00 0.00 0.00 99 1022.9
20260906094920 63 20 2.0 4.0 0.00 0.00 0.00 99 1022.8
20260906094414 63 85 3.0 4.0 0.00 0.00 0.00 99 1022.6
20260906093905 63 77 3.0 4.0 0.00 0.00 0.00 99 1022.7
20260906093402 63 81 2.0 2.0 0.00 0.00 0.00 98 1022.7
20260906092900 64 92 3.0 4.0 0.00 0.00 0.00 98 1022.9
20260906092400 64 75 4.0 5.0 0.00 0.00 0.00 98 1023.1
20260906091856 64 36 3.0 4.0 0.00 0.00 0.00 98 1023.2
20260906091352 64 77 3.0 4.0 0.00 0.00 0.00 98 1023.4
20260906090848 64 20 2.0 2.0 0.00 0.00 0.00 98 1023.2
20260906090347 64 70 2.0 2.0 0.00 0.00 0.00 98 1023.2
20260906085842 64 15 2.0 2.0 0.00 0.00 0.00 98 1023.3
20260906085335 64 24 1.0 2.0 0.00 0.00 0.00 98 1023.2
20260906084830 64 92 4.0 4.0 0.00 0.00 0.00 98 1023.2
20260906084330 64 86 4.0 4.0 0.00 0.00 0.00 98 1023.3
20260906083825 65 58 2.0 2.0 0.00 0.00 0.00 98 1023.2
20260906083320 64 57 3.0 4.0 0.00 0.00 0.00 98 1023.1
20260906082814 65 34 2.0 2.0 0.00 0.00 0.00 98 1023.3
20260906082310 65 59 2.0 4.0 0.00 0.00 0.00 98 1023.1
20260906081805 65 16 2.0 2.0 0.00 0.00 0.00 99 1023.2
20260906081301 65 94 3.0 4.0 0.00 0.00 0.00 99 1023.2
20260906080758 65 74 3.0 4.0 0.00 0.00 0.00 99 1023.2
20260906080254 64 8 2.0 2.0 0.00 0.00 0.00 99 1023.3
20260906075753 64 98 3.0 4.0 0.00 0.00 0.00 99 1023.1
20260906075253 64 37 0.0 0.0 0.00 0.00 0.00 99 1023.1
20260906074748 64 347 0.0 0.0 0.00 0.00 0.00 99 1023.4
20260906074247 64 344 0.0 0.0 0.00 0.00 0.00 99 1023.2
20260906073742 64 344 0.0 0.0 0.00 0.00 0.00 99 1023.4
20260906073242 64 344 0.0 0.0 0.00 0.00 0.00 99 1023.3
20260906072738 63 342 0.0 0.0 0.00 0.00 0.00 99 1023.4
20260906072233 63 340 0.0 0.0 0.00 0.00 0.00 99 1023.6
20260906071730 63 333 0.0 0.0 0.00 0.00 0.00 99 1023.6
20260906071229 63 340 0.0 0.0 0.00 0.00 0.00 98 1023.8
20260906070726 63 340 0.0 0.0 0.00 0.00 0.00 98 1023.7
20260906070221 64 342 0.0 0.0 0.00 0.00 0.00 98 1023.8
20260906065721 64 342 0.0 0.0 0.00 0.00 0.00 98 1023.7
20260906065216 64 342 0.0 0.0 0.00 0.00 0.00 98 1023.7
20260906064711 64 342 0.0 0.0 0.00 0.00 0.00 98 1023.6
20260906064207 64 342 0.0 0.0 0.00 0.00 0.00 98 1023.7
20260906063702 64 342 0.0 0.0 0.00 0.00 0.00 98 1023.6
20260906063157 64 342 0.0 0.0 0.00 0.00 0.00 98 1023.7
20260906062653 64 343 0.0 0.0 0.00 0.00 0.00 98 1023.8
20260906062152 64 342 0.0 0.0 0.00 0.00 0.00 97 1023.6
20260906061648 64 343 0.0 0.0 0.00 0.00 0.00 97 1023.5
20260906061148 65 343 0.0 0.0 0.00 0.00 0.00 97 1023.6
20260906060645 65 342 0.0 0.0 0.00 0.00 0.00 96 1023.5
20260906060142 65 342 0.0 0.0 0.00 0.00 0.00 95 1023.7
20260906055637 65 342 0.0 0.0 0.00 0.00 0.00 95 1023.6
20260906055132 66 346 0.0 0.0 0.00 0.00 0.00 95 1023.5
20260906054627 66 7 0.0 0.0 0.00 0.00 0.00 94 1023.6
20260906054122 66 12 0.0 0.0 0.00 0.00 0.00 94 1023.3
20260906053619 66 23 0.0 0.0 0.00 0.00 0.00 94 1023.4
20260906053114 67 31 1.0 1.0 0.00 0.00 0.00 93 1023.3
20260906052609 67 31 1.0 1.0 0.00 0.00 0.00 93 1023.2
20260906052106 67 29 2.0 2.0 0.00 0.00 0.00 92 1023.2
20260906051602 68 33 2.0 2.0 0.00 0.00 0.00 91 1023.3
20260906051057 68 105 2.0 2.0 0.00 0.00 0.00 92 1023.3
20260906050552 68 32 2.0 2.0 0.00 0.00 0.00 91 1022.9
20260906050047 68 88 3.0 4.0 0.00 0.00 0.00 90 1022.8
20260906045545 68 97 4.0 5.0 0.00 0.00 0.00 89 1023.0
20260906045041 68 134 4.0 5.0 0.00 0.00 0.00 90 1023.0
20260906044536 68 158 4.0 5.0 0.00 0.00 0.00 89 1023.1
20260906044032 68 156 5.0 6.0 0.00 0.00 0.00 89 1023.1
20260906043527 68 151 4.0 5.0 0.00 0.00 0.00 89 1022.9
20260906043024 68 167 6.0 8.0 0.00 0.00 0.00 90 1023.2
20260906042523 67 133 3.0 4.0 0.00 0.00 0.00 90 1023.1
20260906042022 68 28 1.0 1.0 0.00 0.00 0.00 90 1023.1
20260906041519 67 200 3.0 4.0 0.00 0.00 0.00 91 1023.0
20260906041019 68 11 1.0 2.0 0.00 0.00 0.00 90 1022.9
20260906040514 68 11 2.0 2.0 0.00 0.00 0.00 90 1022.9
20260906040010 68 277 0.0 0.0 0.00 0.00 0.00 90 1022.8
20260906035504 68 129 3.0 4.0 0.00 0.00 0.00 89 1022.7
20260906035000 67 90 3.0 4.0 0.00 0.00 0.00 90 1022.7
20260906034500 68 100 4.0 5.0 0.00 0.00 0.00 90 1022.7
20260906033955 68 100 3.0 4.0 0.00 0.00 0.00 89 1022.9
20260906033450 68 76 2.0 2.0 0.00 0.00 0.00 89 1022.7
20260906032946 68 46 2.0 2.0 0.00 0.00 0.00 89 1022.6
20260906032443 68 127 3.0 4.0 0.00 0.00 0.00 88 1022.6
20260906031942 68 97 3.0 4.0 0.00 0.00 0.00 89 1022.6
20260906031437 68 105 2.0 2.0 0.00 0.00 0.00 90 1022.5
20260906030933 68 117 2.0 2.0 0.00 0.00 0.00 89 1022.5
20260906030427 68 113 4.0 6.0 0.00 0.00 0.00 90 1022.5
20260906025922 68 109 2.0 2.0 0.00 0.00 0.00 92 1022.3
20260906025416 67 96 3.0 4.0 0.00 0.00 0.00 92 1022.2
20260906024915 68 94 3.0 4.0 0.00 0.00 0.00 91 1022.4
20260906024414 68 71 3.0 4.0 0.00 0.00 0.00 90 1022.3
20260906023910 68 94 3.0 5.0 0.00 0.00 0.00 89 1022.1
20260906023407 69 103 5.0 6.0 0.00 0.00 0.00 89 1021.9
20260906022906 69 154 3.0 4.0 0.00 0.00 0.00 90 1021.9
20260906022401 69 89 4.0 5.0 0.00 0.00 0.00 90 1021.9
20260906021857 69 118 4.0 5.0 0.00 0.00 0.00 91 1021.9
20260906021356 69 95 6.0 6.0 0.00 0.00 0.00 91 1021.6
20260906020851 69 131 6.0 8.0 0.00 0.00 0.00 90 1021.5
20260906020350 69 132 6.0 6.0 0.00 0.00 0.00 91 1021.6
20260906015845 69 113 7.0 9.0 0.00 0.00 0.00 91 1021.6
20260906015344 69 101 4.0 4.0 0.00 0.00 0.00 92 1021.4
20260906014844 69 90 3.0 4.0 0.00 0.00 0.00 92 1021.2
20260906014344 69 111 4.0 5.0 0.00 0.00 0.00 92 1021.2
20260906013841 69 83 3.0 4.0 0.00 0.00 0.00 92 1021.1
20260906013336 69 82 3.0 4.0 0.00 0.00 0.00 91 1021.2
20260906012831 69 81 3.0 4.0 0.00 0.00 0.00 92 1021.0
20260906012326 70 24 1.0 2.0 0.00 0.00 0.00 90 1021.1
20260906011826 70 24 1.0 2.0 0.00 0.00 0.00 90 1020.9
20260906011321 70 76 2.0 2.0 0.00 0.00 0.00 90 1021.0
20260906010817 70 81 4.0 5.0 0.00 0.00 0.00 89 1020.9
20260906010313 70 32 1.0 1.0 0.00 0.00 0.00 89 1020.9
20260906005808 71 32 2.0 2.0 0.00 0.00 0.00 88 1021.2
20260906005307 71 32 2.0 2.0 0.00 0.00 0.00 88 1020.9
20260906004806 71 32 1.0 2.0 0.00 0.00 0.00 88 1021.0
20260906004306 71 31 2.0 2.0 0.00 0.00 0.00 88 1020.9
20260906003802 72 68 2.0 2.0 0.00 0.00 0.00 87 1020.7
20260906003257 72 23 1.0 2.0 0.00 0.00 0.00 85 1021.0
20260906002753 73 23 2.0 2.0 0.00 0.00 0.00 85 1020.8
20260906002252 73 23 1.0 1.0 0.00 0.00 0.00 82 1020.8
20260906001748 74 23 1.0 1.0 0.00 0.00 0.00 80 1020.7
20260906001248 74 23 0.0 0.0 0.00 0.00 0.00 79 1020.7
20260906000743 74 24 0.0 0.0 0.00 0.00 0.00 79 1020.9
20260906000238 75 25 0.0 0.0 0.00 0.00 0.00 79 1020.9
20260905235733 75 25 1.0 1.0 0.00 0.00 0.00 77 1020.7
20260905235232 76 25 1.0 1.0 0.00 0.00 0.00 77 1020.8
20260905234728 76 23 2.0 2.0 0.00 0.00 0.00 76 1020.6
20260905234223 76 62 3.0 4.0 0.00 0.00 0.00 74 1021.0
20260905233718 77 97 3.0 4.0 0.00 0.00 0.00 73 1020.8
20260905233218 77 65 4.0 5.0 0.00 0.00 0.00 73 1020.9
20260905232713 77 10 3.0 4.0 0.00 0.00 0.00 72 1021.0
20260905232208 77 101 6.0 6.0 0.00 0.00 0.00 72 1021.1
20260905231704 77 40 3.0 4.0 0.00 0.00 0.00 71 1021.2
20260905231159 77 80 4.0 5.0 0.00 0.00 0.00 71 1021.3
20260905230655 78 14 2.0 2.0 0.00 0.00 0.00 70 1021.1
20260905230153 78 354 2.0 2.0 0.00 0.00 0.00 70 1021.2
20260905225653 78 52 3.0 4.0 0.00 0.00 0.00 70 1021.2
20260905225148 78 28 2.0 2.0 0.00 0.00 0.00 68 1021.2
20260905224647 78 71 4.0 5.0 0.00 0.00 0.00 68 1021.3
20260905224142 78 41 3.0 4.0 0.00 0.00 0.00 69 1021.3
20260905223639 77 25 2.0 2.0 0.00 0.00 0.00 70 1021.3
20260905223136 77 18 1.0 2.0 0.00 0.00 0.00 72 1021.2
20260905222631 77 79 3.0 4.0 0.00 0.00 0.00 71 1021.1
20260905222125 77 96 4.0 5.0 0.00 0.00 0.00 70 1021.3
20260905221621 77 23 2.0 2.0 0.00 0.00 0.00 72 1021.2
20260905221117 78 75 3.0 5.0 0.00 0.00 0.00 70 1021.2
20260905220613 78 7 1.0 1.0 0.00 0.00 0.00 70 1021.3
20260905220109 78 48 3.0 4.0 0.00 0.00 0.00 70 1021.0
20260905215608 77 53 4.0 5.0 0.00 0.00 0.00 72 1021.3
20260905215104 78 105 4.0 5.0 0.00 0.00 0.00 72 1021.3
20260905214600 79 348 4.0 5.0 0.00 0.00 0.00 69 1021.4
20260905214100 78 55 4.0 5.0 0.00 0.00 0.00 70 1021.3
20260905213601 78 81 4.0 5.0 0.00 0.00 0.00 73 1021.1
20260905213056 78 16 1.0 2.0 0.00 0.00 0.00 70 1021.2
20260905212556 77 54 4.0 5.0 0.00 0.00 0.00 72 1021.3
20260905212056 78 10 3.0 4.0 0.00 0.00 0.00 71 1021.3
20260905211551 80 90 6.0 8.0 0.00 0.00 0.00 70 1021.5
20260905211047 78 107 3.0 4.0 0.00 0.00 0.00 72 1021.5
20260905210542 77 95 2.0 4.0 0.00 0.00 0.00 73 1021.9
20260905210037 77 88 3.0 4.0 0.00 0.00 0.00 74 1021.8
20260905205537 77 65 2.0 4.0 0.00 0.00 0.00 75 1021.8
20260905205036 77 112 4.0 5.0 0.00 0.00 0.00 75 1021.6
20260905204531 77 48 7.0 10.0 0.00 0.00 0.00 76 1021.3
20260905204026 79 106 5.0 8.0 0.00 0.00 0.00 71 1021.3
20260905203526 78 86 6.0 8.0 0.00 0.00 0.00 72 1021.8
20260905203021 77 115 6.0 6.0 0.00 0.00 0.00 73 1021.5
20260905202517 79 91 6.0 8.0 0.00 0.00 0.00 73 1021.5
20260905202012 79 48 4.0 5.0 0.00 0.00 0.00 73 1021.8
20260905201508 78 89 4.0 6.0 0.00 0.00 0.00 75 1021.6
20260905201007 78 106 5.0 6.0 0.00 0.00 0.00 75 1021.8
20260905200503 78 19 4.0 6.0 0.00 0.00 0.00 76 1021.6
20260905200001 79 63 7.0 9.0 0.00 0.00 0.00 74 1021.6
20260905195456 78 82 5.0 6.0 0.00 0.00 0.00 76 1021.5
20260905194952 78 91 5.0 6.0 0.00 0.00 0.00 77 1021.6
20260905194451 77 107 5.0 6.0 0.00 0.00 0.00 76 1021.6
20260905193946 76 84 4.0 5.0 0.00 0.00 0.00 79 1021.8
20260905193446 76 20 1.0 1.0 0.00 0.00 0.00 80 1021.9
20260905192941 76 89 6.0 8.0 0.00 0.00 0.00 79 1021.9
20260905192436 79 126 4.0 5.0 0.00 0.00 0.00 74 1021.9
20260905191932 78 226 3.0 4.0 0.00 0.00 0.00 75 1021.5
20260905191431 77 1 2.0 2.0 0.00 0.00 0.00 76 1022.0
20260905190931 76 352 2.0 2.0 0.00 0.00 0.00 76 1021.9
20260905190429 77 74 4.0 5.0 0.00 0.00 0.00 77 1022.0
20260905185928 77 67 4.0 5.0 0.00 0.00 0.00 77 1021.9
20260905185423 78 140 2.0 4.0 0.00 0.00 0.00 78 1021.6
20260905184921 77 11 2.0 2.0 0.00 0.00 0.00 75 1021.8
20260905184417 76 81 2.0 2.0 0.00 0.00 0.00 78 1021.6
20260905183915 77 70 3.0 4.0 0.00 0.00 0.00 76 1021.9
20260905183410 75 27 0.0 0.0 0.00 0.00 0.00 75 1022.0
20260905182905 75 177 3.0 4.0 0.00 0.00 0.00 79 1022.0
20260905182404 76 18 1.0 1.0 0.00 0.00 0.00 80 1022.0
20260905181901 75 22 1.0 1.0 0.00 0.00 0.00 81 1022.3
20260905181400 76 65 4.0 5.0 0.00 0.00 0.00 79 1022.2
20260905180859 75 21 2.0 2.0 0.00 0.00 0.00 80 1022.2
20260905180354 75 17 2.0 2.0 0.00 0.00 0.00 80 1022.2
20260905175850 75 12 1.0 2.0 0.00 0.00 0.00 80 1022.2
20260905175349 75 30 2.0 2.0 0.00 0.00 0.00 80 1022.1
20260905174844 74 32 1.0 1.0 0.00 0.00 0.00 83 1022.2
20260905174340 75 59 4.0 5.0 0.00 0.00 0.00 82 1022.2
20260905173836 74 28 3.0 4.0 0.00 0.00 0.00 83 1022.2
20260905173332 75 149 4.0 5.0 0.00 0.00 0.00 84 1022.2
20260905172832 75 51 2.0 4.0 0.00 0.00 0.00 83 1022.3
20260905172329 74 5 4.0 6.0 0.00 0.00 0.00 83 1022.3